MD5521 Weather Reports


time (UTC)temp
F
wind
direction
speed
knots
gust
knots
rain 1hr
in
rain 24hr
in
rain mn
in
humidity
%
barometer
mb
20260903010049 84 182 0.9 3.5 0.00 0.00 0.00 69 1013.2
20260903004532 85 205 0.9 3.5 0.00 0.00 0.00 68 1013.1
20260903003037 85 210 1.7 3.5 0.00 0.00 0.00 68 1013.1
20260903001557 85 221 0.9 3.5 0.00 0.00 0.00 67 1013.0
20260903000021 86 201 0.9 3.5 0.00 0.00 0.00 66 1013.0
20260902234516 87 217 0.9 5.2 0.00 0.00 0.00 65 1012.9
20260902233002 88 233 2.6 7.0 0.00 0.00 0.00 63 1012.9
20260902231606 89 229 2.6 8.7 0.00 0.00 0.00 62 1012.9
20260902230125 89 211 2.6 7.0 0.00 0.00 0.00 61 1013.0
20260902224559 90 222 6.1 8.7 0.00 0.00 0.00 59 1013.0
20260902223057 90 218 5.2 7.8 0.00 0.00 0.00 59 1013.1
20260902221557 91 263 5.2 10.4 0.00 0.00 0.00 57 1013.1
20260902220057 91 221 4.3 8.7 0.00 0.00 0.00 57 1013.1
20260902214537 91 211 5.2 9.6 0.00 0.00 0.00 56 1013.1
20260902213047 92 213 5.2 10.4 0.00 0.00 0.00 56 1013.2
20260902211543 92 256 4.3 8.7 0.00 0.00 0.00 56 1013.3
20260902210052 92 204 5.2 7.8 0.00 0.00 0.00 57 1013.3
20260902204531 91 224 2.6 9.6 0.00 0.00 0.00 58 1013.5
20260902203030 91 219 5.2 11.3 0.00 0.00 0.00 55 1013.5
20260902201521 92 273 5.2 8.7 0.00 0.00 0.00 55 1013.7
20260902200010 91 197 3.5 7.0 0.00 0.00 0.00 57 1014.0
20260902194512 92 260 4.3 8.7 0.00 0.00 0.00 54 1014.1
20260902193012 91 234 3.5 8.7 0.00 0.00 0.00 56 1014.3
20260902191519 91 261 5.2 8.7 0.00 0.00 0.00 56 1014.3
20260902190129 91 269 7.0 10.4 0.00 0.00 0.00 53 1014.5
20260902184607 91 198 4.3 8.7 0.00 0.00 0.00 56 1014.6
20260902183051 89 228 3.5 7.0 0.00 0.00 0.00 58 1014.7
20260902181549 90 245 5.2 10.4 0.00 0.00 0.00 58 1014.8
20260902180045 90 232 5.2 10.4 0.00 0.00 0.00 54 1014.9
20260902174520 90 193 4.3 8.7 0.00 0.00 0.00 57 1015.0
20260902173032 90 246 3.5 9.6 0.00 0.00 0.00 58 1015.2
20260902171521 90 210 6.1 10.4 0.00 0.00 0.00 59 1015.5
20260902170006 89 295 2.6 6.1 0.00 0.00 0.00 61 1015.5
20260902164507 89 229 2.6 7.0 0.00 0.00 0.00 59 1015.5
20260902163004 89 221 4.3 7.8 0.00 0.00 0.00 59 1015.6
20260902161517 89 244 3.5 7.0 0.00 0.00 0.00 61 1015.5
20260902160103 88 259 3.5 6.1 0.00 0.00 0.00 61 1015.5
20260902154540 88 289 3.5 7.0 0.00 0.00 0.00 62 1015.7
20260902153038 87 273 2.6 5.2 0.00 0.00 0.00 63 1015.8
20260902151536 86 277 2.6 6.1 0.00 0.00 0.00 64 1015.7
20260902150022 85 259 2.6 5.2 0.00 0.00 0.00 66 1015.8
20260902144524 85 273 3.5 7.0 0.00 0.00 0.00 66 1015.7
20260902143030 84 292 2.6 6.1 0.00 0.00 0.00 67 1016.0
20260902141530 83 256 1.7 5.2 0.00 0.00 0.00 69 1015.8
20260902140122 82 258 2.6 5.2 0.00 0.00 0.00 70 1015.9
20260902134603 81 236 2.6 6.1 0.00 0.00 0.00 70 1015.8
20260902133051 81 248 1.7 5.2 0.00 0.00 0.00 72 1015.8
20260902131548 80 246 1.7 7.0 0.00 0.00 0.00 73 1016.0
20260902130015 79 253 3.5 6.1 0.00 0.00 0.00 73 1015.8
20260902124517 78 238 2.6 5.2 0.00 0.00 0.00 75 1015.9
20260902123011 77 233 1.7 4.3 0.00 0.00 0.00 76 1015.7
20260902120105 77 219 0.9 6.1 0.00 0.00 0.00 77 1015.7
20260902114548 76 208 1.7 4.3 0.00 0.00 0.00 76 1015.5
20260902113044 77 197 0.9 4.3 0.00 0.00 0.00 75 1015.2
20260902111538 77 246 1.7 4.3 0.00 0.00 0.00 75 1015.2
20260902110008 77 217 2.6 7.0 0.00 0.00 0.00 74 1015.0
20260902104512 78 188 1.7 6.1 0.00 0.00 0.00 74 1015.1
20260902103100 78 201 3.5 7.0 0.00 0.00 0.00 73 1015.0
20260902101604 78 213 4.3 6.1 0.00 0.00 0.00 74 1014.9
20260902100057 77 229 1.7 4.3 0.00 0.00 0.00 74 1014.9
20260902094544 77 204 1.7 5.2 0.00 0.00 0.00 75 1015.0
20260902093038 77 194 1.7 3.5 0.00 0.00 0.00 76 1015.0
20260902091531 77 196 0.0 3.5 0.00 0.00 0.00 76 1014.8
20260902090010 77 193 1.7 4.3 0.00 0.00 0.00 77 1014.7
20260902084518 76 196 0.9 2.6 0.00 0.00 0.00 77 1014.7
20260902083014 77 182 0.9 3.5 0.00 0.00 0.00 77 1014.7
20260902081616 77 191 0.0 3.5 0.00 0.00 0.00 76 1014.6
20260902080106 77 224 0.0 1.7 0.00 0.00 0.00 76 1014.5
20260902074608 77 227 0.0 1.7 0.00 0.00 0.00 77 1014.4
20260902073052 77 220 0.9 2.6 0.00 0.00 0.00 77 1014.3
20260902071548 77 225 0.9 2.6 0.00 0.00 0.00 77 1014.3
20260902070044 77 223 1.7 2.6 0.00 0.00 0.00 76 1014.3
20260902064525 78 234 0.9 4.3 0.00 0.00 0.00 76 1014.3
20260902063036 78 188 1.7 5.2 0.00 0.00 0.00 75 1014.4
20260902061520 78 246 1.7 4.3 0.00 0.00 0.00 75 1014.5
20260902060006 78 225 1.7 2.6 0.00 0.00 0.00 74 1014.6
20260902054612 79 222 1.7 4.3 0.00 0.00 0.00 73 1014.6
20260902053001 80 196 2.6 5.2 0.00 0.00 0.00 72 1014.5
20260902051505 80 217 1.7 5.2 0.00 0.00 0.00 72 1014.4
20260902050111 80 230 2.6 6.1 0.00 0.00 0.00 72 1014.5
20260902044553 81 196 2.6 6.1 0.00 0.00 0.00 72 1014.5
20260902043107 81 198 3.5 6.1 0.00 0.00 0.00 71 1014.5
20260902041602 81 214 2.6 6.1 0.00 0.00 0.00 71 1014.6
20260902040047 81 189 1.7 3.5 0.00 0.00 0.00 71 1014.6
20260902034533 81 215 1.7 4.3 0.00 0.00 0.00 71 1014.4
20260902033030 82 217 1.7 5.2 0.00 0.00 0.00 70 1014.5
20260902031529 82 200 1.7 4.3 0.00 0.00 0.00 71 1014.4
20260902030011 82 210 2.6 5.2 0.00 0.00 0.00 71 1014.5
20260902024513 83 179 2.6 6.1 0.00 0.00 0.00 70 1014.5
20260902023009 83 232 1.7 5.2 0.00 0.00 0.00 70 1014.6
20260902021506 83 217 2.6 4.3 0.00 0.00 0.00 70 1014.4
20260902020100 83 205 0.9 4.3 0.00 0.00 0.00 70 1014.3
20260902014550 84 191 2.6 5.2 0.00 0.00 0.00 70 1014.2
20260902013052 84 192 1.7 5.2 0.00 0.00 0.00 70 1014.2
20260902011539 84 198 1.7 5.2 0.00 0.00 0.00 70 1014.0